Regional Weather Roundup
Issued by NWS

Home | Current Version | Previous Version | Graphics & Text | Print | Product List | Glossary On
Versions: 1 2 3 4 5 6 7 8 9 10 11 12 13 14 15 16 17 18 19 20 21 22 23 24 25 26 27 28 29 30 31 32 33 34 35 36 37 38 39 40 41 42 43 44 45 46 47 48 49 50
439
ASUS43 KBIS 260102
RWRND

NORTH DAKOTA REGIONAL WEATHER ROUNDUP
NATIONAL WEATHER SERVICE BISMARCK ND
800 PM CDT MON JUL 25 2016

NOTE: "FAIR" INDICATES FEW OR NO CLOUDS BELOW 12,000 FEET WITH NO
SIGNIFICANT WEATHER AND/OR OBSTRUCTIONS TO VISIBILITY.


NDZ001>003-009>011-017-260200-
NORTHWEST NORTH DAKOTA

CITY           SKY/WX    TMP DP  RH WIND       PRES   REMARKS
WILLISTON      SUNNY     89  53  29 NE9       29.97S
MINOT          SUNNY     85  67  54 N8        29.95R
MINOT AFB      SUNNY     83  65  53 NE7       29.95R
$$

NDZ018>021-031>035-040>046-260200-
SOUTHWEST NORTH DAKOTA

CITY           SKY/WX    TMP DP  RH WIND       PRES   REMARKS
BISMARCK       SUNNY     92  61  35 CALM      29.90F HX  92
DICKINSON      SUNNY     86  52  30 NE9       29.94S
GARRISON         N/A     85  69  58 N7        29.94S
HETTINGER ARPT MOSUNNY   95  51  22 NE10      29.94F HX  92
$$

NDZ004>008-012>016-024-026-027-054-260200-
NORTHEAST NORTH DAKOTA

CITY           SKY/WX    TMP DP  RH WIND       PRES   REMARKS
GRAND FORKS    MOSUNNY   88  67  49 SE5       29.89S HX  91
GRND FRKS AFB  SUNNY     86  69  56 SE6       29.90S
DEVILS LAKE    SUNNY     82  70  66 N10       29.93R
$$

NDZ022-023-025-028>030-036>039-047>053-260200-
SOUTHEAST NORTH DAKOTA

CITY           SKY/WX    TMP DP  RH WIND       PRES   REMARKS
FARGO          PTCLDY    86  61  42 S8        29.91F
JAMESTOWN      SUNNY     84  70  62 S6        29.90F
$$





USA.gov is the U.S. government's official web portal to all federal, state and local government web resources and services.